CW3008 Weather Reports


time (UTC)temp
F
wind
direction
speed
knots
gust
knots
rain 1hr
in
rain 24hr
in
rain mn
in
humidity
%
barometer
mb
20260505124528 64 256 0.0 0.0 0.00 0.00 0.00 64 1008.6
20260505123044 63 327 0.0 0.0 0.00 0.00 0.00 66 1008.4
20260505121529 61 321 0.0 0.0 0.00 0.00 0.00 68 1008.3
20260505120026 61 296 0.0 0.0 0.00 0.00 0.00 68 1008.4
20260505114514 59 268 0.0 0.0 0.00 0.00 0.00 72 1008.5
20260505113011 58 228 0.0 0.0 0.00 0.00 0.00 74 1008.6
20260505111515 58 257 0.0 0.0 0.00 0.00 0.00 75 1008.4
20260505101558 53 131 0.0 0.0 0.00 0.00 0.00 82 1008.5
20260505100103 52 131 0.0 0.0 0.00 0.00 0.00 82 1008.4
20260505094604 52 131 0.0 0.0 0.00 0.00 0.00 82 1008.4
20260505093056 52 131 0.0 0.0 0.00 0.00 0.00 82 1008.5
20260505091553 52 131 0.0 0.0 0.00 0.00 0.00 81 1008.5
20260505090039 52 131 0.0 0.0 0.00 0.00 0.00 81 1008.6
20260505084524 52 131 0.0 0.0 0.00 0.00 0.00 80 1008.5
20260505083018 52 131 0.0 0.0 0.00 0.00 0.00 80 1008.6
20260505081524 52 131 0.0 0.0 0.00 0.00 0.00 79 1008.7
20260505080033 52 131 0.0 0.0 0.00 0.00 0.00 79 1008.8
20260505074515 52 131 0.0 0.0 0.00 0.00 0.00 78 1008.8
20260505073014 52 131 0.0 0.0 0.00 0.00 0.00 77 1008.8
20260505071509 53 131 0.0 0.0 0.00 0.00 0.00 77 1008.9
20260505070011 53 131 0.0 0.0 0.00 0.00 0.00 75 1008.8
20260505064506 53 131 0.0 0.0 0.00 0.00 0.00 74 1008.8
20260505063005 53 131 0.0 0.0 0.00 0.00 0.00 74 1008.8
20260505061505 53 131 0.0 0.0 0.00 0.00 0.00 74 1008.8
20260505060100 53 131 0.0 0.0 0.00 0.00 0.00 73 1009.0
20260505054600 54 131 0.0 0.0 0.00 0.00 0.00 73 1008.9
20260505053055 54 131 0.0 0.0 0.00 0.00 0.00 73 1008.9
20260505051553 54 131 0.0 0.0 0.00 0.00 0.00 72 1009.0
20260505050123 54 131 0.0 0.0 0.00 0.00 0.00 72 1009.1
20260505041556 54 131 0.0 0.0 0.00 0.00 0.00 70 1009.0
20260505040054 55 131 0.0 0.0 0.00 0.00 0.00 69 1008.9
20260505034543 55 131 0.0 0.0 0.00 0.00 0.00 67 1008.9
20260505033046 55 131 0.0 0.0 0.00 0.00 0.00 66 1008.8
20260505031545 55 131 0.0 0.0 0.00 0.00 0.00 65 1008.8
20260505030041 55 131 0.0 0.0 0.00 0.00 0.00 64 1008.9
20260505024537 55 131 0.0 0.0 0.00 0.00 0.00 64 1008.8
20260505023043 56 131 0.0 0.0 0.00 0.00 0.00 64 1008.8
20260505021536 56 131 0.0 0.0 0.00 0.00 0.00 64 1008.9
20260505020036 57 131 0.0 0.0 0.00 0.00 0.00 61 1008.9
20260505014538 58 131 0.0 0.0 0.00 0.00 0.00 59 1008.6
20260505013031 59 131 0.0 0.0 0.00 0.00 0.00 55 1008.4
20260505011531 59 131 0.0 0.0 0.00 0.00 0.00 54 1008.1
20260505010029 59 131 0.0 0.0 0.00 0.00 0.00 55 1007.9
20260505004535 60 131 0.0 0.0 0.00 0.00 0.00 53 1007.7
20260505003027 61 131 0.0 0.0 0.00 0.00 0.00 51 1007.3
20260505001516 61 131 0.0 0.0 0.00 0.00 0.00 50 1006.8
20260505000027 61 131 0.0 0.0 0.00 0.00 0.00 50 1006.5
20260504234516 62 279 0.0 0.0 0.00 0.00 0.00 50 1006.4
20260504233117 62 131 0.0 0.0 0.00 0.00 0.00 49 1006.0
20260504231515 63 131 0.0 0.0 0.00 0.00 0.00 48 1005.8
20260504230018 63 131 0.0 0.0 0.00 0.00 0.00 48 1005.5
20260504224514 63 288 0.0 0.0 0.00 0.00 0.00 47 1005.2
20260504223115 65 238 0.0 0.0 0.00 0.00 0.00 44 1005.1
20260504221520 66 268 0.0 0.0 0.00 0.00 0.00 41 1005.0
20260504220017 69 119 0.0 0.0 0.00 0.00 0.00 37 1004.9
20260504214516 71 275 0.0 0.0 0.00 0.00 0.00 30 1004.8
20260504213148 72 295 0.0 0.0 0.00 0.00 0.00 29 1004.8
20260504211556 72 275 0.0 0.0 0.00 0.00 0.00 28 1004.8
20260504210053 73 239 0.0 0.0 0.00 0.00 0.00 27 1004.9
20260504204523 73 292 0.0 0.0 0.00 0.00 0.00 28 1004.9
20260504203022 74 131 0.0 0.0 0.00 0.00 0.00 27 1004.8
20260504201551 74 273 0.0 0.0 0.00 0.00 0.00 27 1004.9
20260504200052 74 273 0.0 0.0 0.00 0.00 0.00 27 1004.9
20260504194559 74 1 0.0 0.0 0.00 0.00 0.00 26 1005.0
20260504193053 74 284 0.0 0.0 0.00 0.00 0.00 27 1005.0
20260504191544 74 290 0.0 0.0 0.00 0.00 0.00 26 1005.2
20260504190043 73 95 0.0 0.0 0.00 0.00 0.00 27 1005.3
20260504184539 74 250 0.0 0.0 0.00 0.00 0.00 27 1005.4
20260504183036 73 267 0.0 0.0 0.00 0.00 0.00 26 1005.4
20260504181535 73 271 0.0 0.0 0.00 0.00 0.00 28 1005.5
20260504180033 73 284 0.0 0.0 0.00 0.00 0.00 27 1005.7
20260504174529 73 259 0.0 0.0 0.00 0.00 0.00 26 1005.9
20260504173035 72 295 0.0 0.0 0.00 0.00 0.00 28 1005.9
20260504171525 73 354 0.0 0.0 0.00 0.00 0.00 28 1005.7
20260504140106 69 303 0.0 0.0 0.00 0.01 0.00 33 1007.9